Location: Asheville, NC
(35.6000°N, 82.5500°W)
Time: 20:08:27
(UTC-04:00)

Vanguard 1 - Pass Details

Date: 08 March 2018
Orbit: 650 x 3833 km, 34.3° (Epoch: 24 June)

Event Time Altitude Azimuth Distance (km) Brightness Sun altitude
Rises 07:26:35 0° 200° (SSW) 7,050 14.3 6.4°
Reaches altitude 10° 07:31:54 10° 190° (S) 6,382 14.3 7.5°
Maximum altitude 07:49:44 32° 136° (SE) 5,278 14.8 11.0°
Drops below altitude 10° 08:07:31 10° 84° (E) 6,466 15.7 14.5°
Sets 08:12:47 0° 75° (ENE) 7,163 15.5 15.5°
